Hourly Weather Russkaya Ruya

Today, 10 April, Saturday

Time Temperature Precipitation Wind Pressure Humidity
00:00 -2°C° 0 mm 0 mps 760 mmHg 96%
01:00 -2°C° 0 mm 0 mps 760 mmHg 96%
02:00 -2°C° 0 mm 0 mps 760 mmHg 96%
03:00 -7°C° 0 mm 0 mps 761 mmHg 97%
04:00 -6°C° 0 mm 0 mps 761 mmHg 97%
05:00 -6°C° 0 mm 1 mps 761 mmHg 97%
06:00 -4°C° 0 mm 1 mps 761 mmHg 96%
07:00 -2°C° 0 mm 1 mps 762 mmHg 95%
08:00 +1°C° 0 mm 1 mps 762 mmHg 94%
09:00 +3°C° 0 mm 1 mps 762 mmHg 92%
10:00 +2°C° 0 mm 2 mps 762 mmHg 92%
11:00 +3°C° 0 mm 2 mps 761 mmHg 93%
12:00 +3°C° 0 mm 2 mps 761 mmHg 93%
13:00 +3°C° 0 mm 2 mps 761 mmHg 94%
14:00 +3°C° 0 mm 2 mps 761 mmHg 96%
15:00 +2°C° 0 mm 3 mps 761 mmHg 97%
16:00 +2°C° 0 mm 2 mps 760 mmHg 98%
17:00 +2°C° 0 mm 2 mps 760 mmHg 98%
18:00 +1°C° 0 mm 2 mps 760 mmHg 99%
19:00 +2°C° 0 mm 1 mps 759 mmHg 99%
20:00 +2°C° 0 mm 1 mps 759 mmHg 99%
21:00 +2°C° 0 mm 1 mps 759 mmHg 99%
22:00 +2°C° 0 mm 1 mps 759 mmHg 99%
23:00 +2°C° 0 mm 1 mps 759 mmHg 99%

Tomorrow, 11 April, Sunday

Time Temperature Precipitation Wind Pressure Humidity
00:00 +2°C° 0 mm 1 mps 759 mmHg 99%
01:00 +2°C° 0 mm 1 mps 759 mmHg 99%
02:00 +1°C° 0 mm 2 mps 759 mmHg 99%
03:00 +1°C° 0 mm 2 mps 759 mmHg 99%
04:00 +1°C° 0 mm 2 mps 759 mmHg 99%
05:00 +1°C° 0 mm 2 mps 760 mmHg 98%
06:00 +2°C° 0 mm 1 mps 760 mmHg 98%
07:00 +3°C° 0 mm 1 mps 760 mmHg 95%
08:00 +3°C° 0 mm 1 mps 761 mmHg 92%
09:00 +4°C° 0 mm 1 mps 761 mmHg 88%
10:00 +5°C° 0 mm 1 mps 761 mmHg 82%
11:00 +6°C° 0 mm 1 mps 761 mmHg 76%
12:00 +7°C° 0 mm 1 mps 762 mmHg 70%
13:00 +8°C° 0 mm 1 mps 762 mmHg 69%
14:00 +8°C° 0 mm 1 mps 762 mmHg 68%
15:00 +7°C° 0 mm 0 mps 763 mmHg 67%
16:00 +6°C° 0 mm 0 mps 763 mmHg 73%
17:00 +5°C° 0 mm 0 mps 763 mmHg 79%
18:00 +4°C° 0 mm 0 mps 764 mmHg 85%
19:00 +3°C° 0 mm 0 mps 764 mmHg 85%
20:00 +2°C° 0 mm 0 mps 764 mmHg 86%
21:00 +2°C° 0 mm 0 mps 765 mmHg 86%
22:00 +1°C° 0 mm 0 mps 765 mmHg 86%
23:00 +2°C° 0 mm 1 mps 765 mmHg 86%

Day after tomorrow, 12 April, Monday

Time Temperature Precipitation Wind Pressure Humidity
00:00 +2°C° 0 mm 1 mps 765 mmHg 87%
01:00 +2°C° 0 mm 1 mps 766 mmHg 87%
02:00 +2°C° 0 mm 1 mps 766 mmHg 87%
03:00 +1°C° 0 mm 2 mps 766 mmHg 88%
04:00 +1°C° 0 mm 2 mps 766 mmHg 88%
05:00 +2°C° 0 mm 2 mps 766 mmHg 88%
06:00 +2°C° 0 mm 2 mps 767 mmHg 88%
07:00 +3°C° 0 mm 2 mps 767 mmHg 84%
08:00 +4°C° 0 mm 3 mps 767 mmHg 80%
09:00 +5°C° 0 mm 3 mps 767 mmHg 77%
10:00 +7°C° 0 mm 3 mps 767 mmHg 74%
11:00 +8°C° 0 mm 3 mps 767 mmHg 72%
12:00 +8°C° 0 mm 4 mps 767 mmHg 69%
13:00 +8°C° 0 mm 4 mps 766 mmHg 69%
14:00 +8°C° 0 mm 4 mps 766 mmHg 69%
15:00 +10°C° 0 mm 4 mps 766 mmHg 69%
16:00 +9°C° 0 mm 3 mps 766 mmHg 74%
17:00 +8°C° 0 mm 3 mps 766 mmHg 80%
18:00 +7°C° 0 mm 3 mps 766 mmHg 85%
19:00 +5°C° 0 mm 3 mps 765 mmHg 86%
20:00 +5°C° 0 mm 3 mps 765 mmHg 86%
21:00 +4°C° 0 mm 3 mps 765 mmHg 87%
22:00 +5°C° 0 mm 2 mps 765 mmHg 89%
23:00 +4°C° 0 mm 2 mps 765 mmHg 92%

13 April, Tuesday

Time Temperature Precipitation Wind Pressure Humidity
00:00 +4°C° 0 mm 2 mps 765 mmHg 94%
01:00 +4°C° 0 mm 2 mps 764 mmHg 94%
02:00 +4°C° 0 mm 2 mps 764 mmHg 95%
03:00 +4°C° 0 mm 2 mps 764 mmHg 95%
04:00 +4°C° 0 mm 2 mps 764 mmHg 95%
05:00 +5°C° 0 mm 2 mps 763 mmHg 95%
06:00 +5°C° 0 mm 2 mps 763 mmHg 95%
07:00 +7°C° 0 mm 3 mps 763 mmHg 88%
08:00 +9°C° 0 mm 3 mps 763 mmHg 81%
09:00 +12°C° 0 mm 3 mps 762 mmHg 75%
10:00 +13°C° 0 mm 4 mps 762 mmHg 70%
11:00 +15°C° 0 mm 4 mps 762 mmHg 65%
12:00 +17°C° 0 mm 4 mps 762 mmHg 60%
13:00 +17°C° 0 mm 4 mps 761 mmHg 59%
14:00 +18°C° 0 mm 4 mps 761 mmHg 58%
15:00 +18°C° 0 mm 4 mps 761 mmHg 57%
16:00 +17°C° 0 mm 4 mps 760 mmHg 62%
17:00 +16°C° 0 mm 3 mps 760 mmHg 67%
18:00 +13°C° 0 mm 3 mps 760 mmHg 72%
19:00 +12°C° 0 mm 3 mps 760 mmHg 73%
20:00 +10°C° 0 mm 3 mps 760 mmHg 74%
21:00 +9°C° 0 mm 3 mps 760 mmHg 75%
22:00 +8°C° 0 mm 3 mps 759 mmHg 77%
23:00 +8°C° 0 mm 3 mps 759 mmHg 78%

14 April, Wednesday

Time Temperature Precipitation Wind Pressure Humidity
00:00 +7°C° 0 mm 3 mps 759 mmHg 79%
01:00 +7°C° 0 mm 3 mps 759 mmHg 80%
02:00 +5°C° 0 mm 3 mps 759 mmHg 81%
03:00 +5°C° 0 mm 3 mps 759 mmHg 82%
04:00 +5°C° 0 mm 3 mps 758 mmHg 81%
05:00 +6°C° 0 mm 2 mps 758 mmHg 81%
06:00 +6°C° 0 mm 2 mps 758 mmHg 80%
07:00 +9°C° 0 mm 3 mps 758 mmHg 72%
08:00 +11°C° 0 mm 3 mps 758 mmHg 64%
09:00 +13°C° 0 mm 3 mps 758 mmHg 56%
10:00 +15°C° 0 mm 4 mps 758 mmHg 51%
11:00 +17°C° 0 mm 4 mps 757 mmHg 47%
12:00 +19°C° 0 mm 5 mps 757 mmHg 42%
13:00 +19°C° 0 mm 5 mps 757 mmHg 41%
14:00 +20°C° 0 mm 4 mps 757 mmHg 39%
15:00 +20°C° 0 mm 4 mps 756 mmHg 37%
16:00 +19°C° 0 mm 4 mps 756 mmHg 43%
17:00 +18°C° 0 mm 3 mps 756 mmHg 49%
18:00 +16°C° 0 mm 2 mps 755 mmHg 55%
19:00 +15°C° 0 mm 2 mps 755 mmHg 60%
20:00 +13°C° 0 mm 3 mps 755 mmHg 65%
21:00 +11°C° 0 mm 3 mps 755 mmHg 70%
22:00 +11°C° 0 mm 3 mps 755 mmHg 72%
23:00 +10°C° 0 mm 2 mps 755 mmHg 74%

15 April, Thursday

Time Temperature Precipitation Wind Pressure Humidity
00:00 +9°C° 0 mm 2 mps 754 mmHg 76%
01:00 +9°C° 0 mm 2 mps 754 mmHg 76%
02:00 +8°C° 0 mm 2 mps 754 mmHg 77%
03:00 +8°C° 0 mm 2 mps 753 mmHg 78%
04:00 +8°C° 0 mm 2 mps 753 mmHg 77%
05:00 +8°C° 0 mm 2 mps 753 mmHg 77%
06:00 +8°C° 0 mm 2 mps 753 mmHg 77%
07:00 +10°C° 0 mm 2 mps 752 mmHg 70%
08:00 +12°C° 0 mm 3 mps 752 mmHg 62%
09:00 +13°C° 0 mm 3 mps 752 mmHg 55%
10:00 +16°C° 0 mm 3 mps 752 mmHg 50%
11:00 +17°C° 0 mm 4 mps 751 mmHg 45%
12:00 +19°C° 0 mm 4 mps 751 mmHg 40%
13:00 +19°C° 0 mm 4 mps 750 mmHg 40%
14:00 +19°C° 0 mm 5 mps 750 mmHg 39%
15:00 +19°C° 0 mm 5 mps 749 mmHg 39%
16:00 +17°C° 0 mm 4 mps 749 mmHg 52%
17:00 +13°C° 0 mm 4 mps 749 mmHg 64%
18:00 +11°C° 0 mm 3 mps 749 mmHg 77%
19:00 +10°C° 0 mm 4 mps 749 mmHg 80%
20:00 +7°C° 0 mm 4 mps 749 mmHg 83%
21:00 +6°C° 0 mm 4 mps 749 mmHg 86%
22:00 +5°C° 0.2 mm 4 mps 749 mmHg 87%
23:00 +5°C° 0.2 mm 4 mps 749 mmHg 88%
Show more